Temp
16 16 15 16 15 15 15 15 15 15 15 15 15 15 15 15 14 14 13 14 14 14
16 16 16 16 16 16 16 16 15 15 15 15 15 15 15 14 14 13 14 14 13 13
17 16 16 15 15 15 16 15 15 15 15 15 15 14 14 14 14 14 14 13 13 13
16 16 16 16 16 16 16 16 16 15 15 15 15 14 13 13 13 13 13 13 13 13
15 15 15 15 15 15 15 14 15 14 14 14 14 14 13 13 12 12 12 12 11 11
15 14 14 14 14 13 13 12 13 13 13 12 12 12 12 12 11 11 11 10 10 10
14 14 13 13 13 12 12 11 11 11 11 10 10 10 10 10 10 10 10 9 9 9
13 13 12 12 11 11 11 11 11 10 10 10 10 10 10 10 10 9 9 8 8 8
12 11 11 11 10 10 10 10 10 9 9 9 9 9 9 9 9 9 9 9 8 8
10 10 10 10 10 9 9 9 9 9 9 9 9 9 10 10 9 9 8 7 6 6
10 10 9 9 9 9 9 9 9 8 8 8 7 7 7 8 8 8 7 6 4 3
9 9 9 8 8 8 8 8 8 7 7 7 7 6 6 6 5 5 4 4 4 3
8 8 8 8 7 7 7 7 7 7 6 6 5 4 3 2 4 4 3 3 4 3
8 8 8 7 7 7 7 6 5 5 5 5 4 4 3 2 3 3 3 3 3 2
Height
782 785 789 790 795 799 804 808 812 816 819 820 823 826 827 826 827 829 830 828 828 829
778 782 788 793 796 801 805 809 813 815 818 821 823 824 826 826 826 828 828 830 830 830
782 786 792 796 798 802 806 809 812 814 817 819 821 822 825 826 826 826 826 828 830 829
783 788 792 795 799 803 806 807 809 812 813 815 817 820 822 822 824 825 825 826 827 828
786 790 794 796 799 802 804 805 807 810 812 814 815 817 819 821 821 823 824 824 824 826
786 791 794 796 799 801 802 805 807 810 811 813 813 814 815 817 818 821 823 823 823 823
784 788 790 793 797 799 801 803 804 807 810 812 814 815 815 815 816 818 820 821 822 821
784 787 790 792 795 797 799 802 803 806 810 811 813 812 814 814 815 816 817 818 820 819
785 788 789 793 796 800 801 803 805 807 810 810 809 812 814 815 814 814 815 814 814 815
784 787 789 792 795 798 801 803 805 807 807 807 809 813 815 812 811 812 812 812 812 813
785 787 789 793 794 798 800 801 805 806 807 809 810 813 811 809 809 810 810 809 810 811
786 788 789 793 794 797 800 801 804 804 806 807 809 809 807 807 807 808 808 807 808 809
786 788 791 792 794 797 799 800 802 803 805 806 807 806 805 805 805 806 807 807 807 808
786 788 790 792 794 797 797 799 801 803 802 802 803 802 803 805 804 805 805 805 806 807
Wind_Speed
28 30 28 26 27 24 22 20 13 12 12 13 13 13 10 10 9 12 13 9 5 6
18 15 16 15 14 12 11 11 11 9 9 9 9 9 11 11 11 12 14 16 14 13
16 13 14 15 14 13 12 12 9 8 10 11 10 11 10 9 9 9 11 15 16 14
16 13 13 13 12 10 10 10 11 12 11 12 11 12 12 11 11 13 12 9 10 11
15 13 12 12 12 13 12 12 11 11 11 12 12 12 13 10 8 8 10 12 12 14
13 12 12 10 10 8 7 8 8 9 9 9 9 8 7 6 5 5 6 8 9 11
11 9 7 6 7 6 6 6 6 6 7 6 5 5 4 2 0 2 4 7 9 10
10 9 8 6 6 7 7 7 7 6 6 6 4 2 1 1 2 3 4 4 8 9
12 12 12 12 11 10 9 9 8 7 6 4 3 2 3 3 3 5 7 9 10 12
12 13 12 11 11 10 9 8 7 5 3 2 1 4 6 6 7 8 9 10 11 11
12 11 10 10 9 9 7 7 6 4 3 2 3 6 7 7 6 7 8 8 9 11
11 11 11 11 10 9 8 7 6 4 4 5 6 8 8 7 6 7 7 8 7 8
11 11 11 11 10 8 7 6 6 6 7 8 8 7 6 6 8 8 7 6 6 7
10 10 9 9 8 8 7 6 7 8 9 8 8 7 6 7 8 8 8 7 7 7
Wind_Direction
200 202 206 207 200 202 206 207 210 215 214 216 211 217 229 234 238 243 264 282 276 300
179 170 178 181 183 186 183 183 183 189 198 205 209 237 251 253 255 265 290 284 286 277
180 178 177 177 174 173 175 186 213 234 241 242 243 247 252 257 261 271 284 280 276 279
175 172 176 182 186 197 212 220 242 247 243 232 235 244 241 248 262 272 274 273 277 280
181 187 191 196 212 227 238 242 236 235 232 230 231 235 245 253 256 262 278 286 294 297
184 193 201 210 220 221 217 218 215 220 226 222 212 209 208 220 239 277 288 298 302 310
194 201 199 202 204 205 192 184 173 174 180 179 174 168 158 150 113 316 322 325 326 328
179 184 185 183 173 167 159 152 143 146 153 149 154 121 78 32 2 340 329 324 327 333
174 170 162 162 162 160 155 152 147 154 156 138 89 30 342 331 331 325 323 324 321 317
167 164 161 161 161 164 163 160 158 158 149 110 15 298 293 307 313 309 308 310 311 310
169 170 168 175 173 179 178 169 177 178 178 201 248 275 297 304 311 308 312 313 317 317
185 184 182 185 184 187 189 189 199 211 236 258 262 273 283 302 324 320 321 324 323 317
194 193 192 192 192 199 205 215 231 247 256 265 267 273 294 296 317 306 303 310 319 306
198 202 203 204 207 214 217 227 236 252 275 284 283 281 279 268 290 295 288 292 299 295